Portada
METAR-TAF:

METAR-TAF

Aeropuertos :

Atlantic, Iowa, Estados Unidos

latitud: 41-24N, longitud: 095-03W, altitud: 360 m

Observación

El informe se hizo hace 18 minutos, a las 06:35 UTC
Viento 14 kt del sureste
Temperatura 26°C
Humedad 79%
Presión 1012 hPa
Visibilidad: 16.1 km
Cielo despejado

METAR: KAIO 070635Z AUTO 14014KT 10SM CLR 26/22 A2989 RMK AO2

Hora: 01:53 (06:53 UTC)


TAF: falta

Observaciones y pronósticos meteorológicos de más de 4000 aeropuertos (mensajes METAR y TAF).

Los puntos amarillos y rojos representan las estaciones disponibles.

Ponga el ratón en el punto deseado para ver el nombre de la estación.

Haga clic para ver las observaciones y los pronósticos meteorológicos.

Para cambiar el mapa : haga clic en los botones verdes con una cruz de color negro para hacer un zoom, en el botón verde con un guión para alejar o en las flechas verdes para mapas adyacentes.


METAR-TAF: